Tracking 19832 objects as of 25-Aug-2019
HD Live streaming from Space Station
objects crossing your sky now

ATLAS 5 CENTAUR R/B

Track ATLAS 5 CENTAUR R/B now!


NORAD ID: 41867
Int'l Code: 2016-071B
Perigee: 7,684.7 km
Apogee: 34,770.8 km
Inclination: 10.6 °
Period: 760.5 minutes
Semi major axis: 27598 km
RCS: Unknown
Launch date: November 19, 2016
Source: United States (US)
Launch site: AIR FORCE EASTERN TEST RANGE (AFETR)

Note: This is a ROCKET BODY
aabbcc
Your satellite tracking list
Your tracking list is empty




NASA's NSSDC Master Catalog

Two Line Element Set (TLE):
1 41867U 16071B   19236.61986058 -.00000148 +00000-0 +00000-0 0  9999
2 41867 010.5520 145.1739 4907131 032.4502 349.9210 01.89351992019085
Source of the keplerian elements: AFSPC